Regional Weather Roundup
Issued by NWS

Home | Current Version | Previous Version | Text Only | Print | Product List | Glossary Off
Versions: 1 2 3 4 5 6 7 8 9 10 11 12 13 14 15 16 17 18 19 20 21 22 23 24 25 26 27 28 29 30 31 32 33 34 35 36 37 38 39 40 41 42 43 44 45 46 47 48 49 50

000
ASUS43 KLMK 240710
RWRKY
KENTUCKY REGIONAL WEATHER ROUNDUP
NATIONAL WEATHER SERVICE LOUISVILLE KY
300 AM EDT MON APR 24 2017

NOTE "FAIR" INDICATES FEW OR NO CLOUDS BELOW 12,000 FEET
WITH NO SIGNIFICANT WEATHER AND/OR OBSTRUCTIONS TO VISIBILITY.

KYZ001>023-026-027-061>063-070>075-240800-
WESTERN AND SOUTH CENTRAL KENTUCKY

CITY           SKY/WX    TMP DP  RH WIND       PRES   REMARKS
PADUCAH        CLEAR     50  43  77 NW3       29.88F
HENDERSON      CLEAR     53  38  56 N5        29.90F
OWENSBORO      CLEAR     58  40  51 NE8       29.87F
HOPKINSVILLE   MOCLDY    51  48  90 N7        29.84F
BOWLING GREEN  CLOUDY    54  50  86 NE8       29.85F
GLASGOW        CLOUDY    54  49  84 NE9       29.84F
$$

KYZ024-025-028>034-038-045-046-053-240800-
NORTH CENTRAL KENTUCKY

CITY           SKY/WX    TMP DP  RH WIND       PRES   REMARKS
LOUISVILLE/SDF CLOUDY    59  45  59 NE9       29.89F
LOUISVILLE/LOU CLOUDY    58  44  60 NE3       29.91F
FORT KNOX      CLOUDY    55  46  71 N8        29.86F
$$

KYZ035>037-039>044-047>052-055>060-089>105-240800-
NORTHEAST KENTUCKY

CITY           SKY/WX    TMP DP  RH WIND       PRES   REMARKS
LEXINGTON      CLOUDY    55  46  71 NE5       29.90F
COVINGTON      MOCLDY    56  36  47 NE9       29.94F
FRANKFORT      CLOUDY    58  44  60 N3        29.89F
$$

KYZ054-064>069-076>088-106>120-240800-
SOUTHEAST KENTUCKY

CITY           SKY/WX    TMP DP  RH WIND       PRES   REMARKS
JACKSON        CLOUDY    50  49  96 CALM      29.88F
LONDON         CLOUDY    52  48  86 NE9       29.86F
SOMERSET       CLOUDY    52  50  93 E8        29.87F
MIDDLESBORO    CLOUDY    53  52  97 CALM      29.85S
MONTICELLO     CLOUDY    53  52  96 N8        29.86F
$$




USA.gov is the U.S. government's official web portal to all federal, state and local government web resources and services.